This is the latest recevied weather packets stored in our database for station/object N3DXC. If no packets are shown the sender has not sent any weather packets the latest 10 day(s).
| Time | Temp. | Humidity | Pressure | Rain* | Wind** | Luminosity | Snow |
|---|---|---|---|---|---|---|---|
| 1777640702 | 5.56° C | 92% | 1013.7 hPa | 0 mm | - | - | - |
| 1777640402 | 5.56° C | 92% | 1013.7 hPa | 0 mm | - | - | - |
| 1777640107 | 5.56° C | 94% | 1013.7 hPa | 0 mm | - | - | - |
| 1777639802 | 5.56° C | 95% | 1013.7 hPa | 0 mm | - | - | - |
| 1777639507 | 5° C | 95% | 1013.7 hPa | 0 mm | - | - | - |
| 1777639202 | 5° C | 96% | 1013.7 hPa | 0 mm | - | - | - |
| 1777638902 | 4.44° C | 96% | 1013.6 hPa | 0 mm | - | - | - |
| 1777638604 | 4.44° C | 96% | 1013.7 hPa | 0 mm | - | - | - |
| 1777638306 | 3.89° C | 97% | 1013.7 hPa | 0 mm | - | - | - |
| 1777638004 | 3.89° C | 97% | 1013.7 hPa | 0 mm | - | - | - |
| 1777637707 | 3.33° C | 98% | 1013.6 hPa | 0 mm | - | - | - |
| 1777637705 | 3.33° C | 98% | 1013.6 hPa | 0 mm | - | - | - |
| 1777637403 | 3.33° C | 97% | 1013.6 hPa | 0 mm | - | - | - |
| 1777637103 | 3.33° C | 97% | 1013.6 hPa | 0 mm | - | - | - |
| 1777636803 | 2.78° C | 97% | 1013.7 hPa | 0 mm | - | - | - |
| 1777636504 | 2.78° C | 97% | 1013.9 hPa | 0 mm | - | - | - |
| 1777636203 | 2.78° C | 98% | 1013.8 hPa | 0 mm | - | - | - |
| 1777635904 | 2.22° C | 98% | 1013.8 hPa | 0 mm | - | - | - |
| 1777635602 | 1.67° C | 97% | 1013.9 hPa | 0 mm | - | - | - |
| 1777635303 | 1.67° C | 97% | 1014 hPa | 0 mm | - | - | - |
| 1777635005 | 1.67° C | 97% | 1014 hPa | 0 mm | - | - | - |
| 1777634707 | 1.11° C | 97% | 1013.9 hPa | 0 mm | - | - | - |
| 1777634402 | 1.11° C | 97% | 1013.7 hPa | 0 mm | - | - | - |
| 1777634102 | 0.56° C | 97% | 1013.8 hPa | 0 mm | - | - | - |
| 1777633802 | 0.56° C | 97% | 1013.8 hPa | 0 mm | - | - | - |
* Rain latest hour (hover to see other rain measurements)
** Current wind speed in m/s (hover to see current wind gust speed)